Time,TemperatureF,DewpointF,PressureIn,WindDirection,WindDirectionDegrees,WindSpeedMPH,WindSpeedGustMPH,Humidity,HourlyPrecipIn,Conditions,Clouds,dailyrainin,SolarRadiationWatts/m^2,SoftwareType,DateUTC
2013-03-18 00:00:00,35.1,23.4,30.25,ENE,73,5.0,10.0,62,0.00,SCT,,0.00,0.0,WeatherDisplay:10.37,2013-03-18 04:00:00,
2013-03-18 00:04:00,35.1,23.4,30.25,ENE,75,6.0,8.0,62,0.00,SCT,,0.00,0.0,WeatherDisplay:10.37,2013-03-18 04:04:00,
2013-03-18 00:09:00,35.0,23.7,30.25,ENE,71,3.0,7.0,63,0.00,SCT,,0.00,0.0,WeatherDisplay:10.37,2013-03-18 04:09:00,
2013-03-18 00:15:00,34.9,23.6,30.25,ENE,68,3.0,5.0,63,0.00,SCT,,0.00,0.0,WeatherDisplay:10.37,2013-03-18 04:15:00,
2013-03-18 00:20:00,34.8,23.5,30.25,ENE,74,3.0,6.0,63,0.00,BKN,,0.00,0.0,WeatherDisplay:10.37,2013-03-18 04:20:00,
2013-03-18 00:24:00,34.8,23.5,30.25,ENE,73,1.0,6.0,63,0.00,BKN,,0.00,0.0,WeatherDisplay:10.37,2013-03-18 04:24:00,
2013-03-18 00:30:00,34.8,23.5,30.25,ENE,59,1.0,4.0,63,0.00,BKN,,0.00,0.0,WeatherDisplay:10.37,2013-03-18 04:30:00,
2013-03-18 00:35:00,34.8,23.8,30.26,NE,40,1.0,2.0,64,0.00,BKN,,0.00,0.0,WeatherDisplay:10.37,2013-03-18 04:35:00,
2013-03-18 00:40:00,34.8,23.4,30.26,NE,55,2.0,5.0,63,0.00,BKN,,0.00,0.0,WeatherDisplay:10.37,2013-03-18 04:40:00,
2013-03-18 00:44:00,34.7,23.4,30.26,East,94,2.0,4.0,63,0.00,BKN,,0.00,0.0,WeatherDisplay:10.37,2013-03-18 04:44:00,
2013-03-18 00:49:00,34.7,23.8,30.27,East,96,2.0,4.0,64,0.00,BKN,,0.00,0.0,WeatherDisplay:10.37,2013-03-18 04:49:00,
2013-03-18 00:54:00,34.8,23.5,30.27,ENE,78,1.0,2.0,63,0.00,BKN,,0.00,0.0,WeatherDisplay:10.37,2013-03-18 04:54:00,
2013-03-18 01:00:00,34.7,23.8,30.27,ENE,75,1.0,3.0,64,0.00,BKN,,0.00,0.0,WeatherDisplay:10.37,2013-03-18 05:00:00,
2013-03-18 01:04:00,34.7,23.8,30.27,ENE,75,0.0,3.0,64,0.00,BKN,,0.00,0.0,WeatherDisplay:10.37,2013-03-18 05:04:00,
2013-03-18 01:09:00,34.7,23.8,30.27,ENE,75,0.0,2.0,64,0.00,BKN,,0.00,0.0,WeatherDisplay:10.37,2013-03-18 05:09:00,
2013-03-18 01:14:00,34.7,23.4,30.27,ENE,74,3.0,6.0,63,0.00,BKN,,0.00,0.0,WeatherDisplay:10.37,2013-03-18 05:14:00,
2013-03-18 01:20:00,34.7,23.4,30.27,East,90,6.0,7.0,63,0.00,OVC,,0.00,0.0,WeatherDisplay:10.37,2013-03-18 05:20:00,
2013-03-18 01:25:00,34.6,23.3,30.27,East,96,5.0,8.0,63,0.00,OVC,,0.00,0.0,WeatherDisplay:10.37,2013-03-18 05:25:00,
2013-03-18 01:29:00,34.6,23.3,30.27,East,86,5.0,8.0,63,0.00,OVC,,0.00,0.0,WeatherDisplay:10.37,2013-03-18 05:29:00,
2013-03-18 01:34:00,34.6,23.3,30.27,East,80,5.0,6.0,63,0.00,OVC,,0.00,0.0,WeatherDisplay:10.37,2013-03-18 05:34:00,
2013-03-18 01:40:00,34.6,23.3,30.27,East,82,3.0,6.0,63,0.00,OVC,,0.00,0.0,WeatherDisplay:10.37,2013-03-18 05:40:00,
2013-03-18 01:44:00,34.5,23.2,30.27,East,89,2.0,6.0,63,0.00,OVC,,0.00,0.0,WeatherDisplay:10.37,2013-03-18 05:44:00,
2013-03-18 01:49:00,34.5,23.2,30.27,East,86,2.0,8.0,63,0.00,OVC,,0.00,0.0,WeatherDisplay:10.37,2013-03-18 05:49:00,
2013-03-18 01:55:00,34.5,23.2,30.27,ENE,75,2.0,5.0,63,0.00,OVC,,0.00,0.0,WeatherDisplay:10.37,2013-03-18 05:55:00,
2013-03-18 02:00:00,34.5,23.2,30.27,East,79,3.0,8.0,63,0.00,OVC,,0.00,0.0,WeatherDisplay:10.37,2013-03-18 06:00:00,
2013-03-18 02:04:00,34.4,23.1,30.27,East,86,5.0,6.0,63,0.00,OVC,,0.00,0.0,WeatherDisplay:10.37,2013-03-18 06:04:00,
2013-03-18 02:09:00,34.4,23.1,30.27,East,92,3.0,6.0,63,0.00,OVC,,0.00,0.0,WeatherDisplay:10.37,2013-03-18 06:09:00,
2013-03-18 02:15:00,34.3,22.6,30.27,East,98,3.0,7.0,62,0.00,OVC,,0.00,0.0,WeatherDisplay:10.37,2013-03-18 06:15:00,
2013-03-18 02:19:00,34.3,22.6,30.27,East,91,5.0,7.0,62,0.00,OVC,,0.00,0.0,WeatherDisplay:10.37,2013-03-18 06:19:00,
2013-03-18 02:25:00,34.2,22.5,30.27,ESE,105,2.0,9.0,62,0.00,OVC,,0.00,0.0,WeatherDisplay:10.37,2013-03-18 06:25:00,
2013-03-18 02:29:00,34.2,22.5,30.27,ESE,108,5.0,6.0,62,0.00,OVC,,0.00,0.0,WeatherDisplay:10.37,2013-03-18 06:29:00,
2013-03-18 02:35:00,34.2,22.9,30.27,East,93,1.0,5.0,63,0.00,OVC,,0.00,0.0,WeatherDisplay:10.37,2013-03-18 06:35:00,
2013-03-18 02:40:00,34.1,22.8,30.27,East,88,3.0,6.0,63,0.00,OVC,,0.00,0.0,WeatherDisplay:10.37,2013-03-18 06:40:00,
2013-03-18 02:44:00,34.1,22.8,30.27,East,82,6.0,10.0,63,0.00,OVC,,0.00,0.0,WeatherDisplay:10.37,2013-03-18 06:44:00,
2013-03-18 02:50:00,34.1,22.8,30.27,ENE,77,2.0,7.0,63,0.00,OVC,,0.00,0.0,WeatherDisplay:10.37,2013-03-18 06:50:00,
2013-03-18 02:54:00,34.2,22.9,30.27,East,83,2.0,4.0,63,0.00,OVC,,0.00,0.0,WeatherDisplay:10.37,2013-03-18 06:54:00,
2013-03-18 02:59:00,34.1,22.8,30.27,East,86,2.0,6.0,63,0.00,OVC,,0.00,0.0,WeatherDisplay:10.37,2013-03-18 06:59:00,
2013-03-18 03:05:00,34.1,22.8,30.27,East,84,1.0,3.0,63,0.00,OVC,,0.00,0.0,WeatherDisplay:10.37,2013-03-18 07:05:00,
2013-03-18 03:09:00,34.0,23.1,30.27,ENE,75,0.0,2.0,64,0.00,OVC,,0.00,0.0,WeatherDisplay:10.37,2013-03-18 07:09:00,
2013-03-18 03:14:00,34.0,22.7,30.27,ENE,67,1.0,2.0,63,0.00,OVC,,0.00,0.0,WeatherDisplay:10.37,2013-03-18 07:14:00,
2013-03-18 03:20:00,34.0,22.7,30.26,ENE,67,1.0,3.0,63,0.00,OVC,,0.00,0.0,WeatherDisplay:10.37,2013-03-18 07:20:00,
2013-03-18 03:25:00,34.0,22.7,30.26,East,79,5.0,8.0,63,0.00,OVC,,0.00,0.0,WeatherDisplay:10.37,2013-03-18 07:25:00,
2013-03-18 03:34:00,34.2,22.1,30.26,East,96,3.0,8.0,61,0.00,OVC,,0.00,0.0,WeatherDisplay:10.37,2013-03-18 07:34:00,
2013-03-18 03:40:00,34.2,22.1,30.26,East,92,5.0,7.0,61,0.00,OVC,,0.00,0.0,WeatherDisplay:10.37,2013-03-18 07:40:00,
2013-03-18 03:45:00,34.2,22.1,30.27,East,90,3.0,6.0,61,0.00,OVC,,0.00,0.0,WeatherDisplay:10.37,2013-03-18 07:45:00,
2013-03-18 03:49:00,34.2,22.1,30.26,East,89,3.0,9.0,61,0.00,OVC,,0.00,0.0,WeatherDisplay:10.37,2013-03-18 07:49:00,
2013-03-18 03:55:00,34.1,22.1,30.26,East,88,2.0,5.0,61,0.00,OVC,,0.00,0.0,WeatherDisplay:10.37,2013-03-18 07:55:00,
2013-03-18 04:00:00,34.1,22.0,30.26,East,89,3.0,10.0,61,0.00,OVC,,0.00,0.0,WeatherDisplay:10.37,2013-03-18 08:00:00,
2013-03-18 04:04:00,34.1,22.0,30.26,East,82,7.0,12.0,61,0.00,OVC,,0.00,0.0,WeatherDisplay:10.37,2013-03-18 08:04:00,
2013-03-18 04:10:00,34.1,21.7,30.26,East,83,5.0,7.0,60,0.00,OVC,,0.00,0.0,WeatherDisplay:10.37,2013-03-18 08:10:00,
2013-03-18 04:19:00,34.1,22.0,30.26,East,81,1.0,9.0,61,0.00,OVC,,0.00,0.0,WeatherDisplay:10.37,2013-03-18 08:19:00,
2013-03-18 04:24:00,34.0,22.0,30.26,ENE,62,1.0,7.0,61,0.00,OVC,,0.00,0.0,WeatherDisplay:10.37,2013-03-18 08:24:00,
2013-03-18 04:29:00,34.0,22.0,30.26,SE,141,2.0,8.0,61,0.00,OVC,,0.00,0.0,WeatherDisplay:10.37,2013-03-18 08:29:00,
2013-03-18 04:34:00,33.9,22.2,30.26,ESE,122,3.0,6.0,62,0.00,OVC,,0.00,0.0,WeatherDisplay:10.37,2013-03-18 08:34:00,
2013-03-18 04:39:00,33.7,22.4,30.26,NE,50,1.0,3.0,63,0.00,OVC,,0.00,0.0,WeatherDisplay:10.37,2013-03-18 08:39:00,
2013-03-18 04:44:00,33.7,22.4,30.27,NE,36,2.0,4.0,63,0.00,OVC,,0.00,0.0,WeatherDisplay:10.37,2013-03-18 08:44:00,
2013-03-18 04:50:00,33.5,22.6,30.27,NNE,32,1.0,4.0,64,0.00,OVC,,0.00,0.0,WeatherDisplay:10.37,2013-03-18 08:50:00,
2013-03-18 04:54:00,33.5,22.2,30.27,NE,43,1.0,5.0,63,0.00,OVC,,0.00,0.0,WeatherDisplay:10.37,2013-03-18 08:54:00,
2013-03-18 04:59:00,33.5,22.2,30.27,NE,45,1.0,4.0,63,0.00,OVC,,0.00,0.0,WeatherDisplay:10.37,2013-03-18 08:59:00,
2013-03-18 05:05:00,33.5,22.6,30.27,ENE,57,3.0,6.0,64,0.00,OVC,,0.00,0.0,WeatherDisplay:10.37,2013-03-18 09:05:00,
2013-03-18 05:10:00,33.5,22.6,30.28,ENE,75,2.0,10.0,64,0.00,OVC,,0.00,0.0,WeatherDisplay:10.37,2013-03-18 09:10:00,
2013-03-18 05:15:00,33.5,22.6,30.28,East,79,6.0,9.0,64,0.00,OVC,,0.00,0.0,WeatherDisplay:10.37,2013-03-18 09:15:00,
2013-03-18 05:19:00,33.5,22.6,30.29,ENE,77,3.0,8.0,64,0.00,OVC,,0.00,0.0,WeatherDisplay:10.37,2013-03-18 09:19:00,
2013-03-18 05:24:00,33.5,22.6,30.29,ENE,76,2.0,10.0,64,0.00,OVC,,0.00,0.0,WeatherDisplay:10.37,2013-03-18 09:24:00,
2013-03-18 05:30:00,33.4,22.5,30.29,East,79,3.0,7.0,64,0.00,OVC,,0.00,0.0,WeatherDisplay:10.37,2013-03-18 09:30:00,
2013-03-18 05:34:00,33.4,22.5,30.29,ENE,74,2.0,6.0,64,0.00,OVC,,0.00,0.0,WeatherDisplay:10.37,2013-03-18 09:34:00,
2013-03-18 05:39:00,33.4,22.5,30.29,ENE,72,3.0,7.0,64,0.00,OVC,,0.00,0.0,WeatherDisplay:10.37,2013-03-18 09:39:00,
2013-03-18 05:44:00,33.4,22.5,30.29,ENE,74,3.0,4.0,64,0.00,OVC,,0.00,0.0,WeatherDisplay:10.37,2013-03-18 09:44:00,
2013-03-18 05:50:00,33.3,22.4,30.29,ENE,73,1.0,5.0,64,0.00,OVC,,0.00,0.0,WeatherDisplay:10.37,2013-03-18 09:50:00,
2013-03-18 05:54:00,33.3,22.4,30.30,ENE,70,0.0,3.0,64,0.00,OVC,,0.00,0.0,WeatherDisplay:10.37,2013-03-18 09:54:00,
2013-03-18 05:59:00,33.2,22.3,30.29,ENE,73,1.0,3.0,64,0.00,OVC,,0.00,0.0,WeatherDisplay:10.37,2013-03-18 09:59:00,
2013-03-18 06:05:00,33.2,22.3,30.29,ENE,77,2.0,6.0,64,0.00,OVC,,0.00,0.0,WeatherDisplay:10.37,2013-03-18 10:05:00,
2013-03-18 06:10:00,33.2,22.3,30.29,ENE,72,2.0,5.0,64,0.00,OVC,,0.00,0.0,WeatherDisplay:10.37,2013-03-18 10:10:00,
2013-03-18 06:15:00,33.1,22.6,30.29,ENE,62,2.0,4.0,65,0.00,OVC,,0.00,0.0,WeatherDisplay:10.37,2013-03-18 10:15:00,
2013-03-18 06:19:00,32.9,22.8,30.29,ENE,59,2.0,5.0,66,0.00,OVC,,0.00,0.0,WeatherDisplay:10.37,2013-03-18 10:19:00,
2013-03-18 06:24:00,32.9,22.4,30.29,ENE,60,1.0,5.0,65,0.00,OVC,,0.00,0.0,WeatherDisplay:10.37,2013-03-18 10:24:00,
2013-03-18 06:30:00,32.8,22.0,30.29,ENE,63,2.0,5.0,64,0.00,OVC,,0.00,0.0,WeatherDisplay:10.37,2013-03-18 10:30:00,
2013-03-18 06:35:00,32.9,22.0,30.29,ENE,76,1.0,7.0,64,0.00,OVC,,0.00,0.0,WeatherDisplay:10.37,2013-03-18 10:35:00,
2013-03-18 06:40:00,32.8,21.6,30.29,East,84,5.0,7.0,63,0.00,OVC,,0.00,0.0,WeatherDisplay:10.37,2013-03-18 10:40:00,
2013-03-18 06:44:00,32.8,21.2,30.29,East,80,5.0,9.0,62,0.00,OVC,,0.00,0.0,WeatherDisplay:10.37,2013-03-18 10:44:00,
2013-03-18 06:49:00,32.8,21.2,30.29,East,95,7.0,12.0,62,0.00,OVC,,0.00,0.0,WeatherDisplay:10.37,2013-03-18 10:49:00,
2013-03-18 06:55:00,32.7,21.1,30.30,ESE,102,5.0,10.0,62,0.00,OVC,,0.00,0.0,WeatherDisplay:10.37,2013-03-18 10:55:00,
2013-03-18 07:00:00,32.5,21.7,30.30,East,82,7.0,20.0,64,0.00,OVC,,0.00,0.0,WeatherDisplay:10.37,2013-03-18 11:00:00,
2013-03-18 07:09:00,31.9,22.5,30.30,ENE,74,6.0,12.0,68,0.00,OVC,,0.00,0.0,WeatherDisplay:10.37,2013-03-18 11:09:00,
2013-03-18 07:14:00,31.6,23.3,30.30,East,87,5.0,9.0,71,0.00,OVC,,0.00,0.0,WeatherDisplay:10.37,2013-03-18 11:14:00,
2013-03-18 07:20:00,31.1,24.1,30.29,East,83,3.0,12.0,75,0.00,OVC,,0.00,0.0,WeatherDisplay:10.37,2013-03-18 11:20:00,
2013-03-18 07:29:00,30.3,24.6,30.30,ENE,68,5.0,10.0,79,0.00,OVC,,0.00,0.0,WeatherDisplay:10.37,2013-03-18 11:29:00,
2013-03-18 07:34:00,30.0,24.6,30.29,ENE,73,6.0,8.0,80,0.00,OVC,,0.00,0.0,WeatherDisplay:10.37,2013-03-18 11:34:00,
2013-03-18 07:39:00,29.9,24.8,30.29,ENE,77,3.0,8.0,81,0.00,OVC,,0.00,0.0,WeatherDisplay:10.37,2013-03-18 11:39:00,
2013-03-18 07:44:00,29.7,25.2,30.29,ENE,78,3.0,7.0,83,0.00,OVC,,0.00,7.0,WeatherDisplay:10.37,2013-03-18 11:44:00,
2013-03-18 07:50:00,29.6,25.4,30.29,ENE,64,2.0,3.0,84,0.00,OVC,,0.00,12.0,WeatherDisplay:10.37,2013-03-18 11:50:00,
2013-03-18 07:55:00,29.5,25.3,30.29,NE,42,3.0,6.0,84,0.00,OVC,,0.00,16.0,WeatherDisplay:10.37,2013-03-18 11:55:00,
2013-03-18 08:00:00,29.4,24.9,30.28,ENE,61,3.0,9.0,83,0.00,OVC,,0.00,18.0,WeatherDisplay:10.37,2013-03-18 12:00:00,
2013-03-18 08:09:00,29.6,25.0,30.29,ENE,67,3.0,9.0,83,0.00,OVC,,0.00,25.0,WeatherDisplay:10.37,2013-03-18 12:09:00,
2013-03-18 08:14:00,29.6,25.1,30.28,ENE,60,2.0,7.0,83,0.00,OVC,,0.00,28.0,WeatherDisplay:10.37,2013-03-18 12:14:00,
2013-03-18 08:20:00,29.6,25.1,30.28,ENE,67,5.0,9.0,83,0.00,OVC,,0.00,30.0,WeatherDisplay:10.37,2013-03-18 12:20:00,
2013-03-18 08:24:00,29.6,25.1,30.28,ENE,57,5.0,10.0,83,0.00,OVC,,0.00,30.0,WeatherDisplay:10.37,2013-03-18 12:24:00,
2013-03-18 08:29:00,29.5,25.0,30.28,ENE,61,2.0,8.0,83,0.00,OVC,,0.00,28.0,WeatherDisplay:10.37,2013-03-18 12:29:00,
2013-03-18 08:34:00,29.6,25.1,30.28,ENE,67,2.0,6.0,83,0.00,OVC,,0.00,26.0,WeatherDisplay:10.37,2013-03-18 12:34:00,
2013-03-18 08:39:00,29.6,25.1,30.28,ENE,63,2.0,5.0,83,0.00,OVC,,0.00,25.0,WeatherDisplay:10.37,2013-03-18 12:39:00,
2013-03-18 08:44:00,29.7,24.9,30.28,NE,40,1.0,4.0,82,0.00,OVC,,0.00,28.0,WeatherDisplay:10.37,2013-03-18 12:44:00,
2013-03-18 08:50:00,29.6,24.8,30.28,North,7,1.0,5.0,82,0.00,OVC,,0.00,30.0,WeatherDisplay:10.37,2013-03-18 12:50:00,
2013-03-18 08:54:00,29.8,24.7,30.27,NNE,15,3.0,6.0,81,0.00,OVC,,0.00,35.0,WeatherDisplay:10.37,2013-03-18 12:54:00,
2013-03-18 08:59:00,29.9,24.8,30.27,NNE,23,1.0,6.0,81,0.00,OVC,,0.00,26.0,WeatherDisplay:10.37,2013-03-18 12:59:00,
2013-03-18 09:04:00,29.9,24.5,30.27,NNE,24,0.0,3.0,80,0.00,OVC,,0.00,26.0,WeatherDisplay:10.37,2013-03-18 13:04:00,
2013-03-18 09:09:00,30.0,24.6,30.27,ENE,67,5.0,8.0,80,0.00,OVC,,0.00,40.0,WeatherDisplay:10.37,2013-03-18 13:09:00,
2013-03-18 09:14:00,30.0,24.6,30.26,ENE,73,1.0,6.0,80,0.00,OVC,,0.00,40.0,WeatherDisplay:10.37,2013-03-18 13:14:00,
2013-03-18 09:19:00,30.0,24.6,30.26,ENE,67,1.0,7.0,80,0.00,OVC,,0.00,40.0,WeatherDisplay:10.37,2013-03-18 13:19:00,
2013-03-18 09:24:00,30.0,24.6,30.26,NE,41,2.0,5.0,80,0.00,OVC,,0.00,46.0,WeatherDisplay:10.37,2013-03-18 13:24:00,
2013-03-18 09:30:00,30.1,24.4,30.26,NE,41,1.0,4.0,79,0.00,OVC,,0.00,46.0,WeatherDisplay:10.37,2013-03-18 13:30:00,
2013-03-18 09:34:00,30.1,24.4,30.26,NE,47,2.0,5.0,79,0.00,OVC,,0.00,49.0,WeatherDisplay:10.37,2013-03-18 13:34:00,
2013-03-18 09:39:00,30.2,24.5,30.26,NE,52,1.0,5.0,79,0.00,OVC,,0.00,46.0,WeatherDisplay:10.37,2013-03-18 13:39:00,
2013-03-18 09:44:00,30.3,24.3,30.26,ENE,58,1.0,5.0,78,0.00,OVC,,0.00,49.0,WeatherDisplay:10.37,2013-03-18 13:44:00,
2013-03-18 09:49:00,30.5,24.4,30.26,NE,45,2.0,7.0,78,0.00,OVC,,0.00,51.0,WeatherDisplay:10.37,2013-03-18 13:49:00,
2013-03-18 09:54:00,30.5,24.1,30.26,NE,50,2.0,5.0,77,0.00,OVC,,0.00,58.0,WeatherDisplay:10.37,2013-03-18 13:54:00,
2013-03-18 10:00:00,30.8,24.7,30.25,East,84,2.0,5.0,78,0.00,OVC,,0.00,67.0,WeatherDisplay:10.37,2013-03-18 14:00:00,
2013-03-18 10:04:00,30.8,24.4,30.25,East,83,1.0,3.0,77,0.00,OVC,,0.00,58.0,WeatherDisplay:10.37,2013-03-18 14:04:00,
2013-03-18 10:09:00,30.8,24.4,30.25,ENE,67,2.0,4.0,77,0.00,OVC,,0.00,56.0,WeatherDisplay:10.37,2013-03-18 14:09:00,
2013-03-18 10:14:00,30.9,24.5,30.25,ENE,72,2.0,3.0,77,0.00,OVC,,0.00,65.0,WeatherDisplay:10.37,2013-03-18 14:14:00,
2013-03-18 10:19:00,31.0,24.3,30.25,ENE,70,1.0,4.0,76,0.00,OVC,,0.00,67.0,WeatherDisplay:10.37,2013-03-18 14:19:00,
2013-03-18 10:24:00,31.1,24.7,30.25,NE,53,2.0,5.0,77,0.00,OVC,,0.00,72.0,WeatherDisplay:10.37,2013-03-18 14:24:00,
2013-03-18 10:29:00,31.3,24.6,30.25,NE,42,1.0,3.0,76,0.00,OVC,,0.00,93.0,WeatherDisplay:10.37,2013-03-18 14:29:00,
2013-03-18 10:35:00,31.5,24.5,30.25,NE,52,5.0,6.0,75,0.00,OVC,,0.00,100.0,WeatherDisplay:10.37,2013-03-18 14:35:00,
2013-03-18 10:39:00,31.7,25.0,30.24,ENE,70,1.0,6.0,76,0.00,OVC,,0.00,130.0,WeatherDisplay:10.37,2013-03-18 14:39:00,
2013-03-18 10:45:00,31.9,24.5,30.24,East,84,3.0,6.0,74,0.00,OVC,,0.00,113.0,WeatherDisplay:10.37,2013-03-18 14:45:00,
2013-03-18 10:49:00,32.3,24.9,30.24,ENE,73,2.0,5.0,74,0.00,OVC,,0.00,128.0,WeatherDisplay:10.37,2013-03-18 14:49:00,
2013-03-18 10:54:00,32.4,23.7,30.24,East,92,7.0,12.0,70,0.00,OVC,,0.00,135.0,WeatherDisplay:10.37,2013-03-18 14:54:00,
2013-03-18 10:59:00,32.7,24.7,30.23,East,86,5.0,10.0,72,0.00,OVC,,0.00,148.0,WeatherDisplay:10.37,2013-03-18 14:59:00,
2013-03-18 11:04:00,33.0,24.3,30.22,East,92,6.0,10.0,70,0.00,OVC,,0.00,156.0,WeatherDisplay:10.37,2013-03-18 15:04:00,
2013-03-18 11:09:00,33.3,23.9,30.22,ESE,104,5.0,8.0,68,0.00,OVC,,0.00,185.0,WeatherDisplay:10.37,2013-03-18 15:09:00,
2013-03-18 11:14:00,33.5,23.7,30.21,ESE,114,3.0,4.0,67,0.00,OVC,,0.00,192.0,WeatherDisplay:10.37,2013-03-18 15:14:00,
2013-03-18 11:19:00,33.9,24.1,30.20,East,91,7.0,9.0,67,0.00,OVC,,0.00,199.0,WeatherDisplay:10.37,2013-03-18 15:19:00,
2013-03-18 11:24:00,34.1,23.9,30.20,ESE,113,5.0,9.0,66,0.00,OVC,,0.00,188.0,WeatherDisplay:10.37,2013-03-18 15:24:00,
2013-03-18 11:29:00,34.3,24.1,30.20,ESE,110,3.0,7.0,66,0.00,OVC,,0.00,151.0,WeatherDisplay:10.37,2013-03-18 15:29:00,
2013-03-18 11:34:00,34.5,23.9,30.20,ESE,106,5.0,12.0,65,0.00,OVC,,0.00,121.0,WeatherDisplay:10.37,2013-03-18 15:34:00,
2013-03-18 11:39:00,34.5,24.3,30.20,SE,134,8.0,18.0,66,0.00,OVC,,0.00,109.0,WeatherDisplay:10.37,2013-03-18 15:39:00,
2013-03-18 11:44:00,34.5,24.3,30.20,SE,137,5.0,12.0,66,0.00,OVC,,0.00,104.0,WeatherDisplay:10.37,2013-03-18 15:44:00,
2013-03-18 11:49:00,34.6,24.4,30.21,ESE,120,6.0,9.0,66,0.00,OVC,,0.00,95.0,WeatherDisplay:10.37,2013-03-18 15:49:00,
2013-03-18 11:54:00,34.6,24.4,30.21,SE,138,3.0,10.0,66,0.00,OVC,,0.00,95.0,WeatherDisplay:10.37,2013-03-18 15:54:00,
2013-03-18 11:59:00,34.6,24.4,30.22,SE,130,8.0,16.0,66,0.00,OVC,,0.00,63.0,WeatherDisplay:10.37,2013-03-18 15:59:00,
2013-03-18 12:04:00,34.6,24.8,30.21,SE,133,2.0,10.0,67,0.00,OVC,,0.00,63.0,WeatherDisplay:10.37,2013-03-18 16:04:00,
2013-03-18 12:09:00,34.6,25.1,30.21,SE,130,10.0,13.0,68,0.00,OVC,,0.00,72.0,WeatherDisplay:10.37,2013-03-18 16:09:00,
2013-03-18 12:14:00,34.6,25.5,30.21,SE,132,9.0,13.0,69,0.00,OVC,,0.00,70.0,WeatherDisplay:10.37,2013-03-18 16:14:00,
2013-03-18 12:19:00,34.5,25.4,30.19,SE,128,10.0,14.0,69,0.00,OVC,,0.00,69.0,WeatherDisplay:10.37,2013-03-18 16:19:00,
2013-03-18 12:24:00,34.4,25.6,30.20,SE,134,7.0,17.0,70,0.00,OVC,,0.00,60.0,WeatherDisplay:10.37,2013-03-18 16:24:00,
2013-03-18 12:29:00,34.4,25.6,30.21,SE,141,9.0,14.0,70,0.00,OVC,,0.00,83.0,WeatherDisplay:10.37,2013-03-18 16:29:00,
2013-03-18 12:34:00,34.4,25.6,30.20,SE,137,12.0,17.0,70,0.00,OVC,,0.00,67.0,WeatherDisplay:10.37,2013-03-18 16:34:00,
2013-03-18 12:39:00,34.5,26.0,30.21,SE,142,2.0,10.0,71,0.00,OVC,,0.00,72.0,WeatherDisplay:10.37,2013-03-18 16:39:00,
2013-03-18 12:44:00,34.6,26.1,30.20,SSE,154,6.0,10.0,71,0.00,OVC,,0.00,79.0,WeatherDisplay:10.37,2013-03-18 16:44:00,
2013-03-18 12:49:00,34.5,25.7,30.20,SSE,151,3.0,12.0,70,0.00,OVC,,0.00,86.0,WeatherDisplay:10.37,2013-03-18 16:49:00,
2013-03-18 12:54:00,34.6,26.2,30.20,SE,135,8.0,16.0,71,0.00,OVC,,0.00,93.0,WeatherDisplay:10.37,2013-03-18 16:54:00,
2013-03-18 12:59:00,34.5,26.4,30.20,SE,129,8.0,18.0,72,0.00,OVC,,0.00,79.0,WeatherDisplay:10.37,2013-03-18 16:59:00,
2013-03-18 13:04:00,34.5,26.7,30.19,SE,135,7.0,17.0,73,0.00,OVC,,0.00,95.0,WeatherDisplay:10.37,2013-03-18 17:04:00,
2013-03-18 13:09:00,34.5,27.1,30.19,SSE,162,9.0,17.0,74,0.00,OVC,,0.00,111.0,WeatherDisplay:10.37,2013-03-18 17:09:00,
2013-03-18 13:14:00,34.5,27.1,30.18,SSE,161,9.0,15.0,74,0.00,OVC,,0.00,120.0,WeatherDisplay:10.37,2013-03-18 17:14:00,
2013-03-18 13:19:00,34.5,27.1,30.17,SSE,151,12.0,16.0,74,0.00,OVC,,0.00,105.0,WeatherDisplay:10.37,2013-03-18 17:19:00,
2013-03-18 13:24:00,34.5,27.4,30.17,SSE,149,7.0,15.0,75,0.00,OVC,,0.00,93.0,WeatherDisplay:10.37,2013-03-18 17:24:00,
2013-03-18 13:29:00,34.5,27.4,30.17,ESE,123,7.0,12.0,75,0.00,OVC,,0.00,107.0,WeatherDisplay:10.37,2013-03-18 17:29:00,
2013-03-18 13:34:00,34.6,27.2,30.16,ESE,107,3.0,7.0,74,0.00,OVC,,0.00,97.0,WeatherDisplay:10.37,2013-03-18 17:34:00,
2013-03-18 13:39:00,34.7,27.3,30.16,ESE,104,2.0,6.0,74,0.00,OVC,,0.00,76.0,WeatherDisplay:10.37,2013-03-18 17:39:00,
2013-03-18 13:44:00,34.6,27.5,30.16,East,95,6.0,12.0,75,0.00,OVC,,0.00,60.0,WeatherDisplay:10.37,2013-03-18 17:44:00,
2013-03-18 13:49:00,34.6,27.8,30.16,SE,127,6.0,8.0,76,0.00,OVC,,0.00,47.0,WeatherDisplay:10.37,2013-03-18 17:49:00,
2013-03-18 13:54:00,34.5,27.7,30.15,ESE,117,3.0,8.0,76,0.00,OVC,,0.00,37.0,WeatherDisplay:10.37,2013-03-18 17:54:00,
2013-03-18 13:59:00,34.3,27.5,30.16,East,99,7.0,12.0,76,0.00,OVC,,0.00,32.0,WeatherDisplay:10.37,2013-03-18 17:59:00,
2013-03-18 14:04:00,34.2,27.7,30.16,East,94,7.0,12.0,77,0.00,-SN,,0.00,44.0,WeatherDisplay:10.37,2013-03-18 18:04:00,
2013-03-18 14:09:00,34.0,27.9,30.15,East,83,3.0,7.0,78,0.00,-SN,,0.00,47.0,WeatherDisplay:10.37,2013-03-18 18:09:00,
2013-03-18 14:14:00,34.0,28.2,30.14,East,84,8.0,12.0,79,0.00,-SN,,0.00,51.0,WeatherDisplay:10.37,2013-03-18 18:14:00,
2013-03-18 14:19:00,33.9,28.1,30.13,East,80,8.0,14.0,79,0.00,-SN,,0.00,58.0,WeatherDisplay:10.37,2013-03-18 18:19:00,
2013-03-18 14:24:00,33.7,28.2,30.12,East,79,6.0,12.0,80,0.00,-SN,,0.00,58.0,WeatherDisplay:10.37,2013-03-18 18:24:00,
2013-03-18 14:29:00,33.5,28.3,30.11,ENE,78,6.0,15.0,81,0.00,-SN,,0.00,62.0,WeatherDisplay:10.37,2013-03-18 18:29:00,
2013-03-18 14:34:00,33.3,28.7,30.10,ENE,74,8.0,17.0,83,0.00,-SN,,0.00,69.0,WeatherDisplay:10.37,2013-03-18 18:34:00,
2013-03-18 14:39:00,33.1,28.8,30.10,ENE,73,9.0,18.0,84,0.00,-SN,,0.00,63.0,WeatherDisplay:10.37,2013-03-18 18:39:00,
2013-03-18 14:44:00,33.0,29.0,30.10,ENE,76,6.0,16.0,85,0.00,-SN,,0.00,35.0,WeatherDisplay:10.37,2013-03-18 18:44:00,
2013-03-18 14:49:00,32.9,29.1,30.10,ENE,69,8.0,13.0,86,0.00,-SN,,0.00,28.0,WeatherDisplay:10.37,2013-03-18 18:49:00,
2013-03-18 14:54:00,32.8,29.4,30.10,ENE,74,6.0,14.0,87,0.00,-SN,,0.00,53.0,WeatherDisplay:10.37,2013-03-18 18:54:00,
2013-03-18 14:59:00,32.7,29.3,30.10,East,85,5.0,10.0,87,0.00,-SN,,0.00,28.0,WeatherDisplay:10.37,2013-03-18 18:59:00,
2013-03-18 15:04:00,32.6,29.4,30.09,East,84,8.0,14.0,88,0.00,-SN,,0.00,26.0,WeatherDisplay:10.37,2013-03-18 19:04:00,
2013-03-18 15:09:00,32.5,29.4,30.07,East,85,10.0,13.0,88,0.00,-SN,,0.00,35.0,WeatherDisplay:10.37,2013-03-18 19:09:00,
2013-03-18 15:14:00,32.5,29.3,30.09,East,91,6.0,13.0,88,0.00,-SN,,0.00,37.0,WeatherDisplay:10.37,2013-03-18 19:14:00,
2013-03-18 15:19:00,32.6,29.4,30.09,East,90,2.0,7.0,88,0.00,-SN,,0.00,26.0,WeatherDisplay:10.37,2013-03-18 19:19:00,
2013-03-18 15:24:00,32.5,29.3,30.07,East,93,8.0,13.0,88,0.00,-SN,,0.00,39.0,WeatherDisplay:10.37,2013-03-18 19:24:00,
2013-03-18 15:29:00,32.4,29.5,30.06,East,86,6.0,12.0,89,0.00,-SN,,0.00,56.0,WeatherDisplay:10.37,2013-03-18 19:29:00,
2013-03-18 15:34:00,32.3,29.4,30.07,East,80,2.0,9.0,89,0.00,OVC,,0.00,49.0,WeatherDisplay:10.37,2013-03-18 19:34:00,
2013-03-18 15:39:00,32.3,29.4,30.08,ENE,65,2.0,7.0,89,0.00,OVC,,0.00,54.0,WeatherDisplay:10.37,2013-03-18 19:39:00,
2013-03-18 15:44:00,32.3,29.4,30.07,ENE,72,3.0,10.0,89,0.00,OVC,,0.00,60.0,WeatherDisplay:10.37,2013-03-18 19:44:00,
2013-03-18 15:49:00,32.3,29.7,30.08,East,86,5.0,10.0,90,0.00,-SN,,0.00,65.0,WeatherDisplay:10.37,2013-03-18 19:49:00,
2013-03-18 15:54:00,32.3,29.7,30.08,East,98,6.0,9.0,90,0.00,-SN,,0.00,49.0,WeatherDisplay:10.37,2013-03-18 19:54:00,
2013-03-18 15:59:00,32.3,29.7,30.08,East,96,1.0,5.0,90,0.00,-SN,,0.00,40.0,WeatherDisplay:10.37,2013-03-18 19:59:00,
2013-03-18 16:04:00,32.2,29.5,30.08,East,86,1.0,2.0,90,0.00,-SN,,0.00,53.0,WeatherDisplay:10.37,2013-03-18 20:04:00,
2013-03-18 16:09:00,32.1,29.8,30.08,East,86,0.0,3.0,91,0.00,-SN,,0.00,46.0,WeatherDisplay:10.37,2013-03-18 20:09:00,
2013-03-18 16:14:00,32.1,29.8,30.08,East,84,1.0,4.0,91,0.00,-SN,,0.00,44.0,WeatherDisplay:10.37,2013-03-18 20:14:00,
2013-03-18 16:19:00,32.2,29.9,30.08,East,91,1.0,2.0,91,0.00,OVC,,0.00,47.0,WeatherDisplay:10.37,2013-03-18 20:19:00,
2013-03-18 16:24:00,32.1,29.8,30.08,ENE,60,1.0,3.0,91,0.00,OVC,,0.00,42.0,WeatherDisplay:10.37,2013-03-18 20:24:00,
2013-03-18 16:29:00,32.1,30.0,30.08,NNE,30,1.0,3.0,92,0.00,OVC,,0.00,49.0,WeatherDisplay:10.37,2013-03-18 20:29:00,
2013-03-18 16:34:00,32.0,29.9,30.07,NE,48,1.0,3.0,92,0.00,OVC,,0.00,53.0,WeatherDisplay:10.37,2013-03-18 20:34:00,
2013-03-18 16:39:00,32.0,29.9,30.07,NE,52,0.0,3.0,92,0.00,OVC,,0.00,40.0,WeatherDisplay:10.37,2013-03-18 20:39:00,
2013-03-18 16:44:00,32.0,29.9,30.07,NE,43,0.0,2.0,92,0.00,OVC,,0.00,37.0,WeatherDisplay:10.37,2013-03-18 20:44:00,
2013-03-18 16:49:00,32.0,30.2,30.07,NE,43,1.0,2.0,93,0.00,BKN,,0.00,42.0,WeatherDisplay:10.37,2013-03-18 20:49:00,
2013-03-18 16:54:00,32.0,30.2,30.07,NE,43,1.0,2.0,93,0.00,BKN,,0.00,44.0,WeatherDisplay:10.37,2013-03-18 20:54:00,
2013-03-18 16:59:00,32.0,30.2,30.07,NE,43,0.0,2.0,93,0.00,BKN,,0.00,47.0,WeatherDisplay:10.37,2013-03-18 20:59:00,
2013-03-18 17:04:00,32.0,30.2,30.06,NE,43,1.0,2.0,93,0.00,BKN,,0.00,56.0,WeatherDisplay:10.37,2013-03-18 21:04:00,
2013-03-18 17:09:00,32.1,30.3,30.06,NE,43,0.0,2.0,93,0.00,BKN,,0.00,40.0,WeatherDisplay:10.37,2013-03-18 21:09:00,
2013-03-18 17:14:00,32.1,30.3,30.06,NE,44,0.0,3.0,93,0.00,BKN,,0.00,23.0,WeatherDisplay:10.37,2013-03-18 21:14:00,
2013-03-18 17:19:00,32.0,30.2,30.06,NE,44,1.0,2.0,93,0.00,BKN,,0.00,19.0,WeatherDisplay:10.37,2013-03-18 21:19:00,
2013-03-18 17:24:00,31.9,30.1,30.06,NE,41,1.0,3.0,93,0.00,BKN,,0.00,16.0,WeatherDisplay:10.37,2013-03-18 21:24:00,
2013-03-18 17:29:00,31.9,30.1,30.06,NNE,32,0.0,2.0,93,0.00,BKN,,0.00,18.0,WeatherDisplay:10.37,2013-03-18 21:29:00,
2013-03-18 17:34:00,31.9,30.1,30.06,NNE,28,0.0,2.0,93,0.00,OVC,,0.00,18.0,WeatherDisplay:10.37,2013-03-18 21:34:00,
2013-03-18 17:39:00,31.9,30.1,30.06,NNE,28,0.0,2.0,93,0.00,OVC,,0.00,19.0,WeatherDisplay:10.37,2013-03-18 21:39:00,
2013-03-18 17:44:00,31.9,30.1,30.05,NNE,28,0.0,2.0,93,0.00,OVC,,0.00,18.0,WeatherDisplay:10.37,2013-03-18 21:44:00,
2013-03-18 17:49:00,31.9,30.1,30.05,NE,38,2.0,4.0,93,0.00,OVC,,0.00,18.0,WeatherDisplay:10.37,2013-03-18 21:49:00,
2013-03-18 17:54:00,31.9,30.1,30.04,NE,52,1.0,3.0,93,0.00,OVC,,0.00,14.0,WeatherDisplay:10.37,2013-03-18 21:54:00,
2013-03-18 17:59:00,31.9,30.1,30.04,NNE,25,2.0,3.0,93,0.00,OVC,,0.00,14.0,WeatherDisplay:10.37,2013-03-18 21:59:00,
2013-03-18 18:04:00,31.9,30.1,30.03,NNE,16,2.0,4.0,93,0.00,OVC,,0.00,14.0,WeatherDisplay:10.37,2013-03-18 22:04:00,
2013-03-18 18:09:00,31.9,30.1,30.03,NE,46,1.0,4.0,93,0.00,OVC,,0.00,14.0,WeatherDisplay:10.37,2013-03-18 22:09:00,
2013-03-18 18:14:00,31.9,30.1,30.03,NE,56,2.0,4.0,93,0.00,OVC,,0.00,12.0,WeatherDisplay:10.37,2013-03-18 22:14:00,
2013-03-18 18:19:00,31.9,30.1,30.02,ENE,60,1.0,3.0,93,0.00,OVC,,0.00,12.0,WeatherDisplay:10.37,2013-03-18 22:19:00,
2013-03-18 18:24:00,31.9,30.1,30.01,ENE,57,2.0,3.0,93,0.00,OVC,,0.00,14.0,WeatherDisplay:10.37,2013-03-18 22:24:00,
2013-03-18 18:29:00,31.9,30.1,30.01,NE,48,2.0,3.0,93,0.00,OVC,,0.00,11.0,WeatherDisplay:10.37,2013-03-18 22:29:00,
2013-03-18 18:34:00,32.0,30.2,30.01,NNE,32,0.0,4.0,93,0.00,-SN,,0.00,7.0,WeatherDisplay:10.37,2013-03-18 22:34:00,
2013-03-18 18:39:00,32.1,30.3,30.01,NNE,23,1.0,4.0,93,0.00,-SN,,0.00,5.0,WeatherDisplay:10.37,2013-03-18 22:39:00,
2013-03-18 18:44:00,32.2,30.1,30.01,NE,52,0.0,7.0,92,0.00,-SN,,0.00,5.0,WeatherDisplay:10.37,2013-03-18 22:44:00,
2013-03-18 18:49:00,32.2,30.1,30.00,ENE,62,1.0,5.0,92,0.00,-SN,,0.00,0.0,WeatherDisplay:10.37,2013-03-18 22:49:00,
2013-03-18 18:54:00,32.2,29.9,29.99,NNE,30,1.0,7.0,91,0.00,-SN,,0.00,0.0,WeatherDisplay:10.37,2013-03-18 22:54:00,
2013-03-18 18:59:00,32.2,29.9,29.99,NNE,24,2.0,5.0,91,0.00,-SN,,0.00,0.0,WeatherDisplay:10.37,2013-03-18 22:59:00,
2013-03-18 19:04:00,32.2,29.9,29.99,NNE,26,3.0,6.0,91,0.00,OVC,,0.00,0.0,WeatherDisplay:10.37,2013-03-18 23:04:00,
2013-03-18 19:09:00,32.3,30.0,30.00,NE,46,3.0,6.0,91,0.00,OVC,,0.00,0.0,WeatherDisplay:10.37,2013-03-18 23:09:00,
2013-03-18 19:14:00,32.3,30.0,30.00,ENE,62,1.0,5.0,91,0.00,OVC,,0.00,0.0,WeatherDisplay:10.37,2013-03-18 23:14:00,
2013-03-18 19:19:00,32.3,29.7,30.00,East,81,3.0,5.0,90,0.00,OVC,,0.00,0.0,WeatherDisplay:10.37,2013-03-18 23:19:00,
2013-03-18 19:24:00,32.3,29.7,30.00,East,99,0.0,3.0,90,0.00,OVC,,0.00,0.0,WeatherDisplay:10.37,2013-03-18 23:24:00,
2013-03-18 19:29:00,32.3,29.7,30.00,ESE,115,0.0,4.0,90,0.00,OVC,,0.00,0.0,WeatherDisplay:10.37,2013-03-18 23:29:00,
2013-03-18 19:34:00,32.3,29.7,30.00,ESE,114,0.0,2.0,90,0.00,OVC,,0.00,0.0,WeatherDisplay:10.37,2013-03-18 23:34:00,
2013-03-18 19:39:00,32.3,29.9,30.00,ESE,113,1.0,3.0,91,0.00,OVC,,0.00,0.0,WeatherDisplay:10.37,2013-03-18 23:39:00,
2013-03-18 19:44:00,32.2,29.9,30.00,East,86,1.0,5.0,91,0.00,OVC,,0.00,0.0,WeatherDisplay:10.37,2013-03-18 23:44:00,
2013-03-18 19:49:00,32.1,29.8,30.00,ENE,66,1.0,5.0,91,0.00,OVC,,0.00,0.0,WeatherDisplay:10.37,2013-03-18 23:49:00,
2013-03-18 19:54:00,32.1,29.8,29.99,ENE,65,1.0,2.0,91,0.00,OVC,,0.00,0.0,WeatherDisplay:10.37,2013-03-18 23:54:00,
2013-03-18 19:59:00,32.2,29.9,29.99,ENE,65,0.0,1.0,91,0.00,OVC,,0.00,0.0,WeatherDisplay:10.37,2013-03-18 23:59:00,
2013-03-18 20:04:00,32.3,29.9,29.99,ENE,65,0.0,3.0,91,0.00,OVC,,0.00,0.0,WeatherDisplay:10.37,2013-03-19 00:04:00,
2013-03-18 20:09:00,32.3,30.0,29.99,ENE,61,0.0,2.0,91,0.00,OVC,,0.00,0.0,WeatherDisplay:10.37,2013-03-19 00:09:00,
2013-03-18 20:14:00,32.5,30.2,29.99,ENE,57,0.0,2.0,91,0.00,OVC,,0.00,0.0,WeatherDisplay:10.37,2013-03-19 00:14:00,
2013-03-18 20:19:00,32.6,30.3,29.99,NE,56,0.0,2.0,91,0.00,OVC,,0.00,0.0,WeatherDisplay:10.37,2013-03-19 00:19:00,
2013-03-18 20:24:00,32.7,30.4,29.99,NE,56,0.0,2.0,91,0.00,OVC,,0.00,0.0,WeatherDisplay:10.37,2013-03-19 00:24:00,
2013-03-18 20:29:00,32.8,30.5,29.99,NE,36,1.0,3.0,91,0.00,OVC,,0.00,0.0,WeatherDisplay:10.37,2013-03-19 00:29:00,
2013-03-18 20:34:00,32.9,30.5,29.99,NE,38,2.0,3.0,91,0.00,OVC,,0.00,0.0,WeatherDisplay:10.37,2013-03-19 00:34:00,
2013-03-18 20:39:00,32.9,30.6,30.00,NNE,26,1.0,5.0,91,0.00,OVC,,0.00,0.0,WeatherDisplay:10.37,2013-03-19 00:39:00,
2013-03-18 20:44:00,32.9,30.6,30.00,North,355,1.0,3.0,91,0.00,OVC,,0.00,0.0,WeatherDisplay:10.37,2013-03-19 00:44:00,
2013-03-18 20:49:00,33.0,30.6,29.99,NE,41,2.0,4.0,91,0.00,OVC,,0.00,0.0,WeatherDisplay:10.37,2013-03-19 00:49:00,
2013-03-18 20:54:00,32.9,30.6,29.98,East,79,2.0,4.0,91,0.00,OVC,,0.00,0.0,WeatherDisplay:10.37,2013-03-19 00:54:00,
2013-03-18 20:59:00,32.9,30.6,29.98,East,81,2.0,3.0,91,0.00,OVC,,0.00,0.0,WeatherDisplay:10.37,2013-03-19 00:59:00,
2013-03-18 21:04:00,32.9,30.6,29.98,East,79,2.0,4.0,91,0.00,OVC,,0.00,0.0,WeatherDisplay:10.37,2013-03-19 01:04:00,
2013-03-18 21:09:00,32.9,30.6,29.98,East,84,2.0,5.0,91,0.00,OVC,,0.00,0.0,WeatherDisplay:10.37,2013-03-19 01:09:00,
2013-03-18 21:14:00,32.9,30.8,29.98,East,84,2.0,4.0,92,0.00,OVC,,0.00,0.0,WeatherDisplay:10.37,2013-03-19 01:14:00,
2013-03-18 21:19:00,33.0,30.9,29.97,East,83,3.0,6.0,92,0.00,OVC,,0.00,0.0,WeatherDisplay:10.37,2013-03-19 01:19:00,
2013-03-18 21:24:00,33.0,30.9,29.96,East,82,3.0,6.0,92,0.00,OVC,,0.00,0.0,WeatherDisplay:10.37,2013-03-19 01:24:00,
2013-03-18 21:29:00,33.0,30.9,29.96,ENE,78,3.0,5.0,92,0.00,OVC,,0.00,0.0,WeatherDisplay:10.37,2013-03-19 01:29:00,
2013-03-18 21:34:00,33.0,30.9,29.95,ENE,74,5.0,6.0,92,0.00,OVC,,0.00,0.0,WeatherDisplay:10.37,2013-03-19 01:34:00,
2013-03-18 21:39:00,33.1,31.0,29.95,ENE,73,2.0,5.0,92,0.00,OVC,,0.00,0.0,WeatherDisplay:10.37,2013-03-19 01:39:00,
2013-03-18 21:44:00,33.1,31.1,29.94,ENE,69,2.0,5.0,92,0.00,OVC,,0.00,0.0,WeatherDisplay:10.37,2013-03-19 01:44:00,
2013-03-18 21:49:00,33.2,31.4,29.94,ENE,67,2.0,6.0,93,0.00,OVC,,0.00,0.0,WeatherDisplay:10.37,2013-03-19 01:49:00,
2013-03-18 21:54:00,33.3,31.5,29.94,ENE,76,1.0,9.0,93,0.00,OVC,,0.00,0.0,WeatherDisplay:10.37,2013-03-19 01:54:00,
2013-03-18 21:59:00,33.4,31.3,29.93,ENE,77,3.0,7.0,92,0.00,OVC,,0.00,0.0,WeatherDisplay:10.37,2013-03-19 01:59:00,
2013-03-18 22:09:00,33.5,31.4,29.93,ENE,75,5.0,6.0,92,0.00,OVC,,0.00,0.0,WeatherDisplay:10.37,2013-03-19 02:09:00,
2013-03-18 22:14:00,33.5,31.4,29.93,ENE,63,1.0,5.0,92,0.00,OVC,,0.00,0.0,WeatherDisplay:10.37,2013-03-19 02:14:00,
2013-03-18 22:19:00,33.5,31.4,29.93,NNE,30,2.0,4.0,92,0.00,OVC,,0.00,0.0,WeatherDisplay:10.37,2013-03-19 02:19:00,
2013-03-18 22:24:00,33.5,31.5,29.93,NE,49,1.0,3.0,92,0.00,OVC,,0.00,0.0,WeatherDisplay:10.37,2013-03-19 02:24:00,
2013-03-18 22:29:00,33.5,31.4,29.92,ENE,62,2.0,4.0,92,0.00,OVC,,0.00,0.0,WeatherDisplay:10.37,2013-03-19 02:29:00,
2013-03-18 22:34:00,33.5,31.4,29.92,ENE,70,1.0,4.0,92,0.00,OVC,,0.00,0.0,WeatherDisplay:10.37,2013-03-19 02:34:00,
2013-03-18 22:39:00,33.5,31.4,29.92,ENE,71,2.0,5.0,92,0.00,OVC,,0.00,0.0,WeatherDisplay:10.37,2013-03-19 02:39:00,
2013-03-18 22:44:00,33.5,31.4,29.92,ENE,75,3.0,7.0,92,0.00,OVC,,0.00,0.0,WeatherDisplay:10.37,2013-03-19 02:44:00,
2013-03-18 22:49:00,33.5,31.4,29.93,ENE,73,3.0,5.0,92,0.00,OVC,,0.00,0.0,WeatherDisplay:10.37,2013-03-19 02:49:00,
2013-03-18 22:54:00,33.5,31.4,29.93,ENE,66,1.0,3.0,92,0.00,OVC,,0.00,0.0,WeatherDisplay:10.37,2013-03-19 02:54:00,
2013-03-18 22:59:00,33.5,31.4,29.92,ENE,67,2.0,4.0,92,0.00,OVC,,0.00,0.0,WeatherDisplay:10.37,2013-03-19 02:59:00,
2013-03-18 23:04:00,33.4,31.3,29.91,ENE,73,3.0,5.0,92,0.00,OVC,,0.00,0.0,WeatherDisplay:10.37,2013-03-19 03:04:00,
2013-03-18 23:09:00,33.4,31.3,29.90,East,80,3.0,4.0,92,0.00,OVC,,0.00,0.0,WeatherDisplay:10.37,2013-03-19 03:09:00,
2013-03-18 23:14:00,33.3,31.2,29.88,ENE,78,5.0,7.0,92,0.00,OVC,,0.00,0.0,WeatherDisplay:10.37,2013-03-19 03:14:00,
2013-03-18 23:19:00,33.2,31.2,29.88,East,80,2.0,8.0,92,0.00,OVC,,0.00,0.0,WeatherDisplay:10.37,2013-03-19 03:19:00,
2013-03-18 23:24:00,33.2,31.4,29.88,ENE,71,5.0,8.0,93,0.00,OVC,,0.00,0.0,WeatherDisplay:10.37,2013-03-19 03:24:00,
2013-03-18 23:29:00,33.3,31.5,29.89,ENE,58,2.0,5.0,93,0.00,OVC,,0.00,0.0,WeatherDisplay:10.37,2013-03-19 03:29:00,
2013-03-18 23:34:00,33.4,31.6,29.90,ENE,78,2.0,5.0,93,0.00,OVC,,0.00,0.0,WeatherDisplay:10.37,2013-03-19 03:34:00,
2013-03-18 23:39:00,33.5,31.4,29.90,ESE,105,0.0,3.0,92,0.00,OVC,,0.00,0.0,WeatherDisplay:10.37,2013-03-19 03:39:00,
2013-03-18 23:49:00,33.7,31.6,29.90,NNE,33,0.0,1.0,92,0.00,OVC,,0.00,0.0,WeatherDisplay:10.37,2013-03-19 03:49:00,
2013-03-18 23:54:00,33.7,31.6,29.89,NE,48,0.0,2.0,92,0.00,OVC,,0.00,0.0,WeatherDisplay:10.37,2013-03-19 03:54:00,